Year,Month,Day,Hour,Minute,Value (Times are PST for temperature in C)
2009,08,17,07,17,12.90
2009,08,17,07,18,12.90
2009,08,17,07,19,12.90
2009,08,17,07,20,12.90
2009,08,17,07,21,12.90
2009,08,17,07,22,12.90
2009,08,17,07,23,12.90
2009,08,17,07,24,12.90
2009,08,17,07,25,13.00
2009,08,17,07,26,13.00
2009,08,17,07,27,13.00
2009,08,17,07,28,13.10
2009,08,17,07,29,13.10
2009,08,17,07,30,13.10
2009,08,17,07,31,13.20
2009,08,17,07,32,13.20
2009,08,17,07,33,13.20
2009,08,17,07,34,13.20
2009,08,17,07,35,13.20
2009,08,17,07,36,13.30
2009,08,17,07,37,13.30
2009,08,17,07,38,13.30
2009,08,17,07,39,13.30
2009,08,17,07,40,13.30
2009,08,17,07,41,13.30
2009,08,17,07,42,13.40
2009,08,17,07,43,13.40
2009,08,17,07,44,13.40
2009,08,17,07,45,13.40
2009,08,17,07,46,13.50
2009,08,17,07,47,13.50
2009,08,17,07,48,13.60
2009,08,17,07,49,13.60
2009,08,17,07,50,13.60
2009,08,17,07,51,13.70
2009,08,17,07,52,13.70
2009,08,17,07,53,13.70
2009,08,17,07,54,13.80
2009,08,17,07,55,13.80
2009,08,17,07,56,13.90
2009,08,17,07,57,13.90
2009,08,17,07,58,14.00
2009,08,17,07,59,14.10
2009,08,17,08,00,14.10
2009,08,17,08,01,14.10
2009,08,17,08,02,14.20
2009,08,17,08,03,14.20
2009,08,17,08,04,14.30
2009,08,17,08,05,14.30
2009,08,17,08,06,14.30
2009,08,17,08,07,14.40
2009,08,17,08,08,14.40
2009,08,17,08,09,14.50
2009,08,17,08,10,14.60
2009,08,17,08,11,14.70
2009,08,17,08,12,14.70
2009,08,17,08,13,14.80
2009,08,17,08,14,15.00
2009,08,17,08,15,15.00
2009,08,17,08,16,15.00
2009,08,17,08,17,15.00
2009,08,17,08,18,15.10
2009,08,17,08,19,15.20
2009,08,17,08,20,15.30
2009,08,17,08,21,15.30
2009,08,17,08,22,15.40
2009,08,17,08,23,15.40
2009,08,17,08,24,15.50
2009,08,17,08,25,15.50
2009,08,17,08,26,15.60
2009,08,17,08,27,15.60
2009,08,17,08,28,15.60
2009,08,17,08,29,15.70
2009,08,17,08,30,15.70
2009,08,17,08,31,15.80
2009,08,17,08,32,15.90
2009,08,17,08,33,16.00
2009,08,17,08,34,16.00
2009,08,17,08,35,16.10
2009,08,17,08,36,16.20
2009,08,17,08,37,16.30
2009,08,17,08,38,16.40
2009,08,17,08,39,16.50
2009,08,17,08,40,16.60
2009,08,17,08,41,16.70
2009,08,17,08,42,16.70
2009,08,17,08,43,16.80
2009,08,17,08,44,17.00
2009,08,17,08,45,17.10
2009,08,17,08,46,17.20
2009,08,17,08,47,17.30
2009,08,17,08,48,17.50
2009,08,17,08,49,17.60
2009,08,17,08,50,17.70
2009,08,17,08,51,17.80
2009,08,17,08,52,17.80
2009,08,17,08,53,17.90
2009,08,17,08,54,18.00
2009,08,17,08,55,18.00
2009,08,17,08,56,18.10
2009,08,17,08,57,18.10
2009,08,17,08,58,18.10
2009,08,17,08,59,18.20
2009,08,17,09,00,18.20
2009,08,17,09,01,18.20
2009,08,17,09,02,18.20
2009,08,17,09,03,18.20
2009,08,17,09,04,18.20
2009,08,17,09,05,18.20
2009,08,17,09,06,18.20
2009,08,17,09,07,18.20
2009,08,17,09,08,18.20
2009,08,17,09,09,18.20
2009,08,17,09,10,18.20
2009,08,17,09,11,18.20
2009,08,17,09,12,18.20
2009,08,17,09,13,18.30
2009,08,17,09,14,18.30
2009,08,17,09,15,18.30
2009,08,17,09,16,18.30
2009,08,17,09,17,18.30
2009,08,17,09,18,18.30
2009,08,17,09,19,18.30
2009,08,17,09,20,18.30
2009,08,17,09,21,18.30
2009,08,17,09,22,18.30
2009,08,17,09,23,18.30
2009,08,17,09,24,18.40
2009,08,17,09,25,18.40
2009,08,17,09,26,18.40
2009,08,17,09,27,18.40
2009,08,17,09,28,18.40
2009,08,17,09,29,18.50
2009,08,17,09,30,18.50
2009,08,17,09,31,18.50
2009,08,17,09,32,18.50
2009,08,17,09,33,18.50
2009,08,17,09,34,18.60
2009,08,17,09,35,18.50
2009,08,17,09,36,18.50
2009,08,17,09,37,18.50
2009,08,17,09,38,18.50
2009,08,17,09,39,18.50
2009,08,17,09,40,18.50
2009,08,17,09,41,18.50
2009,08,17,09,42,18.50
2009,08,17,09,43,18.50
2009,08,17,09,44,18.50
2009,08,17,09,45,18.50
2009,08,17,09,46,18.50
2009,08,17,09,47,18.50
2009,08,17,09,48,18.50
2009,08,17,09,49,18.50
2009,08,17,09,50,18.60
2009,08,17,09,51,18.60
2009,08,17,09,52,18.60
2009,08,17,09,53,18.60
2009,08,17,09,54,18.60
2009,08,17,09,55,18.60
2009,08,17,09,56,18.60
2009,08,17,09,57,18.60
2009,08,17,09,58,18.70
2009,08,17,09,59,18.70
2009,08,17,10,00,18.70
2009,08,17,10,01,18.70
2009,08,17,10,02,18.70
2009,08,17,10,03,18.70
2009,08,17,10,04,18.60
2009,08,17,10,05,18.60
2009,08,17,10,06,18.50
2009,08,17,10,07,18.40
2009,08,17,10,08,18.40
2009,08,17,10,09,18.40
2009,08,17,10,10,18.50
2009,08,17,10,11,18.50
2009,08,17,10,12,18.60
2009,08,17,10,13,18.60
2009,08,17,10,14,18.60
2009,08,17,10,15,18.60
2009,08,17,10,16,18.50
2009,08,17,10,17,18.50
2009,08,17,10,18,18.50
2009,08,17,10,19,18.40
2009,08,17,10,20,18.40
2009,08,17,10,21,18.40
2009,08,17,10,22,18.40
2009,08,17,10,23,18.40
2009,08,17,10,24,18.40
2009,08,17,10,25,18.40
2009,08,17,10,26,18.40
2009,08,17,10,27,18.40
2009,08,17,10,28,18.40
2009,08,17,10,29,18.40
2009,08,17,10,30,18.40
2009,08,17,10,31,18.40
2009,08,17,10,32,18.40
2009,08,17,10,33,18.40
2009,08,17,10,34,18.50
2009,08,17,10,35,18.50
2009,08,17,10,36,18.60
2009,08,17,10,37,18.60
2009,08,17,10,38,18.60
2009,08,17,10,39,18.70
2009,08,17,10,40,18.70
2009,08,17,10,41,18.80
2009,08,17,10,42,18.80
2009,08,17,10,43,18.90
2009,08,17,10,44,19.00
2009,08,17,10,45,19.10
2009,08,17,10,46,19.10
2009,08,17,10,47,19.10
2009,08,17,10,48,19.10
2009,08,17,10,49,19.10
2009,08,17,10,50,19.10
2009,08,17,10,51,19.10
2009,08,17,10,52,19.10
2009,08,17,10,53,19.20
2009,08,17,10,54,19.20
2009,08,17,10,55,19.10
2009,08,17,10,56,19.10
2009,08,17,10,57,19.20
2009,08,17,10,58,19.20
2009,08,17,10,59,19.20
2009,08,17,11,00,19.20
2009,08,17,11,01,19.30
2009,08,17,11,02,19.30
2009,08,17,11,03,19.30
2009,08,17,11,04,19.30
2009,08,17,11,05,19.40
2009,08,17,11,06,19.50
2009,08,17,11,07,19.50
2009,08,17,11,08,19.60
2009,08,17,11,09,19.70
2009,08,17,11,10,19.80
2009,08,17,11,11,19.80
2009,08,17,11,12,19.80
2009,08,17,11,13,19.80
2009,08,17,11,14,19.90
2009,08,17,11,15,20.00
2009,08,17,11,16,20.10
2009,08,17,11,17,20.10
2009,08,17,11,18,20.20
2009,08,17,11,19,20.30
2009,08,17,11,20,20.40
2009,08,17,11,21,20.50
2009,08,17,11,22,20.60
2009,08,17,11,23,20.60
2009,08,17,11,24,20.60
2009,08,17,11,25,20.50
2009,08,17,11,26,20.40
2009,08,17,11,27,20.40
2009,08,17,11,28,20.40
2009,08,17,11,29,20.40
2009,08,17,11,30,20.50
2009,08,17,11,31,20.60
2009,08,17,11,32,20.60
2009,08,17,11,33,20.50
2009,08,17,11,34,20.50
2009,08,17,11,35,20.40
2009,08,17,11,36,20.30
2009,08,17,11,37,20.30
2009,08,17,11,38,20.30
2009,08,17,11,39,20.30
2009,08,17,11,40,20.40
2009,08,17,11,41,20.50
2009,08,17,11,42,20.60
2009,08,17,11,43,20.70
2009,08,17,11,44,20.70
2009,08,17,11,45,20.80
2009,08,17,11,46,20.80
2009,08,17,11,47,20.80
2009,08,17,11,48,20.90
2009,08,17,11,49,20.90
2009,08,17,11,50,20.90
2009,08,17,11,51,21.00
2009,08,17,11,52,21.00
2009,08,17,11,53,20.90
2009,08,17,11,54,20.90
2009,08,17,11,55,20.90
2009,08,17,11,56,20.90
2009,08,17,11,57,21.00
2009,08,17,11,58,21.10
2009,08,17,11,59,21.10
2009,08,17,12,00,21.10
2009,08,17,12,01,21.10
2009,08,17,12,02,21.00
2009,08,17,12,03,21.10
2009,08,17,12,04,21.20
2009,08,17,12,05,21.30
2009,08,17,12,06,21.30
2009,08,17,12,07,21.20
2009,08,17,12,08,21.20
2009,08,17,12,09,21.20
2009,08,17,12,10,21.20
2009,08,17,12,11,21.20
2009,08,17,12,12,21.20
2009,08,17,12,13,21.20
2009,08,17,12,14,21.30
2009,08,17,12,15,21.40
2009,08,17,12,16,21.40
2009,08,17,12,17,21.40
2009,08,17,12,18,21.40
2009,08,17,12,19,21.30
2009,08,17,12,20,21.30
2009,08,17,12,21,21.20
2009,08,17,12,22,21.20
2009,08,17,12,23,21.20
2009,08,17,12,24,21.20
2009,08,17,12,25,21.20
2009,08,17,12,26,21.20
2009,08,17,12,27,21.30
2009,08,17,12,28,21.30
2009,08,17,12,29,21.30
2009,08,17,12,30,21.20
2009,08,17,12,31,21.20
2009,08,17,12,32,21.20
2009,08,17,12,33,21.30
2009,08,17,12,34,21.30
2009,08,17,12,35,21.40
2009,08,17,12,36,21.40
2009,08,17,12,37,21.50
2009,08,17,12,38,21.60
2009,08,17,12,39,21.60
2009,08,17,12,40,21.50
2009,08,17,12,41,21.50
2009,08,17,12,42,21.40
2009,08,17,12,43,21.30
2009,08,17,12,44,21.40
2009,08,17,12,45,21.50
2009,08,17,12,46,21.70
2009,08,17,12,47,21.80
2009,08,17,12,48,21.80
2009,08,17,12,49,21.80
2009,08,17,12,50,21.80
2009,08,17,12,51,21.90
2009,08,17,12,52,21.90
2009,08,17,12,53,21.80
2009,08,17,12,54,21.80
2009,08,17,12,55,21.80
2009,08,17,12,56,21.90
2009,08,17,12,57,22.00
2009,08,17,12,58,22.00
2009,08,17,12,59,22.00
2009,08,17,13,00,22.10
2009,08,17,13,01,22.20
2009,08,17,13,02,22.20
2009,08,17,13,03,22.30
2009,08,17,13,04,22.40
2009,08,17,13,05,22.40
2009,08,17,13,06,22.50
2009,08,17,13,07,22.40
2009,08,17,13,08,22.30
2009,08,17,13,09,22.20
2009,08,17,13,10,22.20
2009,08,17,13,11,22.20
2009,08,17,13,12,22.20
2009,08,17,13,13,22.20
2009,08,17,13,14,22.20
2009,08,17,13,15,22.20
2009,08,17,13,16,22.20
2009,08,17,13,17,22.10
2009,08,17,13,18,22.00
2009,08,17,13,19,22.00
2009,08,17,13,20,22.00
2009,08,17,13,21,21.90
2009,08,17,13,22,21.90
2009,08,17,13,23,22.00
2009,08,17,13,24,22.00
2009,08,17,13,25,22.00
2009,08,17,13,26,22.00
2009,08,17,13,27,22.10
2009,08,17,13,28,22.20
2009,08,17,13,29,22.30
2009,08,17,13,30,22.30
2009,08,17,13,31,22.30
2009,08,17,13,32,22.30
2009,08,17,13,33,22.30
2009,08,17,13,34,22.30
2009,08,17,13,35,22.20
2009,08,17,13,36,22.20
2009,08,17,13,37,22.10
2009,08,17,13,38,22.10
2009,08,17,13,39,22.10
2009,08,17,13,40,22.10
2009,08,17,13,41,22.10
2009,08,17,13,42,22.10
2009,08,17,13,43,22.10
2009,08,17,13,44,22.10
2009,08,17,13,45,22.30
2009,08,17,13,46,22.50
2009,08,17,13,47,22.50
2009,08,17,13,48,22.30
2009,08,17,13,49,22.10
2009,08,17,13,50,22.00
2009,08,17,13,51,21.90
2009,08,17,13,52,21.90
2009,08,17,13,53,22.00
2009,08,17,13,54,22.10
2009,08,17,13,55,22.10
2009,08,17,13,56,22.00
2009,08,17,13,57,22.00
2009,08,17,13,58,21.90
2009,08,17,13,59,22.00
2009,08,17,14,00,22.00
2009,08,17,14,01,21.90
2009,08,17,14,02,21.80
2009,08,17,14,03,21.70
2009,08,17,14,04,21.70
2009,08,17,14,05,21.80
2009,08,17,14,06,21.80
2009,08,17,14,07,21.80
2009,08,17,14,08,22.00
2009,08,17,14,09,22.10
2009,08,17,14,10,22.20
2009,08,17,14,11,22.30
2009,08,17,14,12,22.30
2009,08,17,14,13,22.40
2009,08,17,14,14,22.60
2009,08,17,14,15,22.60
2009,08,17,14,16,22.60
2009,08,17,14,17,22.70
2009,08,17,14,18,22.70
2009,08,17,14,19,22.70
2009,08,17,14,20,22.70
2009,08,17,14,21,22.80
2009,08,17,14,22,22.90
2009,08,17,14,23,23.00
2009,08,17,14,24,23.10
2009,08,17,14,25,23.10
2009,08,17,14,26,23.10
2009,08,17,14,27,23.10
2009,08,17,14,28,23.00
2009,08,17,14,29,22.90
2009,08,17,14,30,22.90
2009,08,17,14,31,23.00
2009,08,17,14,32,23.10
2009,08,17,14,33,23.20
2009,08,17,14,34,23.30
2009,08,17,14,35,23.30
2009,08,17,14,36,23.30
2009,08,17,14,37,23.20
2009,08,17,14,38,23.20
2009,08,17,14,39,23.20
2009,08,17,14,40,23.20
2009,08,17,14,41,23.30
2009,08,17,14,42,23.30
2009,08,17,14,43,23.30
2009,08,17,14,44,23.30
2009,08,17,14,45,23.40
2009,08,17,14,46,23.50
2009,08,17,14,47,23.60
2009,08,17,14,48,23.60
2009,08,17,14,49,23.50
2009,08,17,14,50,23.40
2009,08,17,14,51,23.30
2009,08,17,14,52,23.20
2009,08,17,14,53,23.10
2009,08,17,14,54,23.10
2009,08,17,14,55,23.20
2009,08,17,14,56,23.20
2009,08,17,14,57,23.20
2009,08,17,14,58,23.20
2009,08,17,14,59,23.40
2009,08,17,15,00,23.60
2009,08,17,15,01,23.60
2009,08,17,15,02,23.70
2009,08,17,15,03,23.70
2009,08,17,15,04,23.80
2009,08,17,15,05,23.70
2009,08,17,15,06,23.60
2009,08,17,15,07,23.50
2009,08,17,15,08,23.40
2009,08,17,15,09,23.50
2009,08,17,15,10,23.50
2009,08,17,15,11,23.60
2009,08,17,15,12,23.60
2009,08,17,15,13,23.50
2009,08,17,15,14,23.40
2009,08,17,15,15,23.40
2009,08,17,15,16,23.40
2009,08,17,15,17,23.30
2009,08,17,15,18,23.30
2009,08,17,15,19,23.30
2009,08,17,15,20,23.20
2009,08,17,15,21,23.20
2009,08,17,15,22,23.00
2009,08,17,15,23,23.00
2009,08,17,15,24,23.10
2009,08,17,15,25,23.10
2009,08,17,15,26,23.20
2009,08,17,15,27,23.20
2009,08,17,15,28,23.30
2009,08,17,15,29,23.30
2009,08,17,15,30,23.30
2009,08,17,15,31,23.30
2009,08,17,15,32,23.20
2009,08,17,15,33,23.20
2009,08,17,15,34,23.20
2009,08,17,15,35,23.20
2009,08,17,15,36,23.20
2009,08,17,15,37,23.20
2009,08,17,15,38,23.20
2009,08,17,15,39,23.30
2009,08,17,15,40,23.40
2009,08,17,15,41,23.40
2009,08,17,15,42,23.40
2009,08,17,15,43,23.40
2009,08,17,15,44,23.40
2009,08,17,15,45,23.40
2009,08,17,15,46,23.50
2009,08,17,15,47,23.50
2009,08,17,15,48,23.40
2009,08,17,15,49,23.40
2009,08,17,15,50,23.40
2009,08,17,15,51,23.50
2009,08,17,15,52,23.50
2009,08,17,15,53,23.40
2009,08,17,15,54,23.50
2009,08,17,15,55,23.70
2009,08,17,15,56,23.60
2009,08,17,15,57,23.60
2009,08,17,15,58,23.60
2009,08,17,15,59,23.60
2009,08,17,16,00,23.50
2009,08,17,16,01,23.60
2009,08,17,16,02,23.70
2009,08,17,16,03,23.70
2009,08,17,16,04,23.70
2009,08,17,16,05,23.70
2009,08,17,16,06,23.60
2009,08,17,16,07,23.60
2009,08,17,16,08,23.50
2009,08,17,16,09,23.50
2009,08,17,16,10,23.50
2009,08,17,16,11,23.60
2009,08,17,16,12,23.60
2009,08,17,16,13,23.70
2009,08,17,16,14,23.70
2009,08,17,16,15,23.60
2009,08,17,16,16,23.60
2009,08,17,16,17,23.60
2009,08,17,16,18,23.70
2009,08,17,16,19,23.70
2009,08,17,16,20,23.70
2009,08,17,16,21,23.70
2009,08,17,16,22,23.70
2009,08,17,16,23,23.70
2009,08,17,16,24,23.60
2009,08,17,16,25,23.60
2009,08,17,16,26,23.70
2009,08,17,16,27,23.60
2009,08,17,16,28,23.50
2009,08,17,16,29,23.50
2009,08,17,16,30,23.60
2009,08,17,16,31,23.60
2009,08,17,16,32,23.70
2009,08,17,16,33,23.80
2009,08,17,16,34,23.80
2009,08,17,16,35,23.80
2009,08,17,16,36,23.90
2009,08,17,16,37,23.80
2009,08,17,16,38,23.70
2009,08,17,16,39,23.70
2009,08,17,16,40,23.70
2009,08,17,16,41,23.70
2009,08,17,16,42,23.70
2009,08,17,16,43,23.70
2009,08,17,16,44,23.70
2009,08,17,16,45,23.60
2009,08,17,16,46,23.60
2009,08,17,16,47,23.40
2009,08,17,16,48,23.30
2009,08,17,16,49,23.20
2009,08,17,16,50,23.10
2009,08,17,16,51,23.00
2009,08,17,16,52,23.10
2009,08,17,16,53,23.20
2009,08,17,16,54,23.20
2009,08,17,16,55,23.30
2009,08,17,16,56,23.20
2009,08,17,16,57,23.20
2009,08,17,16,58,23.30
2009,08,17,16,59,23.30
2009,08,17,17,00,23.30
2009,08,17,17,01,23.30
2009,08,17,17,02,23.30
2009,08,17,17,03,23.40
2009,08,17,17,04,23.40
2009,08,17,17,05,23.40
2009,08,17,17,06,23.50
2009,08,17,17,07,23.40
2009,08,17,17,08,23.40
2009,08,17,17,09,23.40
2009,08,17,17,10,23.40
2009,08,17,17,11,23.30
2009,08,17,17,12,23.30
2009,08,17,17,13,23.40
2009,08,17,17,14,23.40
2009,08,17,17,15,23.50
2009,08,17,17,16,23.60
2009,08,17,17,17,23.70
2009,08,17,17,18,23.70
2009,08,17,17,19,23.70
2009,08,17,17,20,23.70
2009,08,17,17,21,23.60
2009,08,17,17,22,23.60
2009,08,17,17,23,23.40
2009,08,17,17,24,23.20
2009,08,17,17,25,23.10
2009,08,17,17,26,22.90
2009,08,17,17,27,22.80
2009,08,17,17,28,22.80
2009,08,17,17,29,22.80
2009,08,17,17,30,22.80
2009,08,17,17,31,22.80
2009,08,17,17,32,22.80
2009,08,17,17,33,22.80
2009,08,17,17,34,22.80
2009,08,17,17,35,22.70
2009,08,17,17,36,22.70
2009,08,17,17,37,22.60
2009,08,17,17,38,22.50
2009,08,17,17,39,22.50
2009,08,17,17,40,22.30
2009,08,17,17,41,22.30
2009,08,17,17,42,22.20
2009,08,17,17,43,22.20
2009,08,17,17,44,22.10
2009,08,17,17,45,22.10
2009,08,17,17,46,22.20
2009,08,17,17,47,22.10
2009,08,17,17,48,22.10
2009,08,17,17,49,22.10
2009,08,17,17,50,22.00
2009,08,17,17,51,22.00
2009,08,17,17,52,22.10
2009,08,17,17,53,22.10
2009,08,17,17,54,22.10
2009,08,17,17,55,22.20
2009,08,17,17,56,22.20
2009,08,17,17,57,22.20
2009,08,17,17,58,22.20
2009,08,17,17,59,22.20
2009,08,17,18,00,22.20
2009,08,17,18,01,22.30
2009,08,17,18,02,22.30
2009,08,17,18,03,22.30
2009,08,17,18,04,22.30
2009,08,17,18,05,22.30
2009,08,17,18,06,22.30
2009,08,17,18,07,22.30
2009,08,17,18,08,22.40
2009,08,17,18,09,22.50
2009,08,17,18,10,22.50
2009,08,17,18,11,22.60
2009,08,17,18,12,22.60
2009,08,17,18,13,22.50
2009,08,17,18,14,22.50
2009,08,17,18,15,22.40
2009,08,17,18,16,22.40
2009,08,17,18,17,22.40
2009,08,17,18,18,22.40
2009,08,17,18,19,22.40
2009,08,17,18,20,22.30
2009,08,17,18,21,22.30
2009,08,17,18,22,22.40
2009,08,17,18,23,22.30
2009,08,17,18,24,22.30
2009,08,17,18,25,22.30
2009,08,17,18,26,22.20
2009,08,17,18,27,22.10
2009,08,17,18,28,22.10
2009,08,17,18,29,22.00
2009,08,17,18,30,22.00
2009,08,17,18,31,21.90
2009,08,17,18,32,21.90
2009,08,17,18,33,21.90
2009,08,17,18,34,21.90
2009,08,17,18,35,21.90
2009,08,17,18,36,21.90
2009,08,17,18,37,21.80
2009,08,17,18,38,21.80
2009,08,17,18,39,21.80
2009,08,17,18,40,21.80
2009,08,17,18,41,21.80
2009,08,17,18,42,21.70
2009,08,17,18,43,21.70
2009,08,17,18,44,21.70
2009,08,17,18,45,21.60
2009,08,17,18,46,21.60
2009,08,17,18,47,21.50
2009,08,17,18,48,21.40
2009,08,17,18,49,21.40
2009,08,17,18,50,21.40
2009,08,17,18,51,21.40
2009,08,17,18,52,21.40
2009,08,17,18,53,21.40
2009,08,17,18,54,21.40
2009,08,17,18,55,21.40
2009,08,17,18,56,21.40
2009,08,17,18,57,21.30
2009,08,17,18,58,21.30
2009,08,17,18,59,21.20
2009,08,17,19,00,21.20
2009,08,17,19,01,21.10
2009,08,17,19,02,21.10
2009,08,17,19,03,21.00
2009,08,17,19,04,21.00
2009,08,17,19,05,20.90
2009,08,17,19,06,20.90
2009,08,17,19,07,20.90
2009,08,17,19,08,20.90
2009,08,17,19,09,21.00
2009,08,17,19,10,20.90
2009,08,17,19,11,20.90
2009,08,17,19,12,20.90
2009,08,17,19,13,20.90
2009,08,17,19,14,20.90
2009,08,17,19,15,20.90
2009,08,17,19,16,20.90
2009,08,17,19,17,20.90
2009,08,17,19,18,20.90
2009,08,17,19,19,20.90
